Preview of NWS' New Version of Forecast
This preview is not operational and should not be used for support decisions.

Regional Weather Roundup (RWR)

Issued by National Weather Service (NWS)

                            
000
ASUS45 KABQ 201410
RWRNM 
NEW MEXICO REGIONAL WEATHER ROUNDUP
NATIONAL WEATHER SERVICE ALBUQUERQUE NM
800 AM MDT THU JUN 20 2019

NOTE: "FAIR" MEANS FEW OR NO CLOUDS BELOW 12,000 FEET AGL WITH NO
       SIGNIFICANT WEATHER OR OBSTRUCTIONS TO VISION.

      THIS PRODUCT IS RELEASED AS TWO VERSIONS.  ONE VERSION NEAR
      THE TOP OF THE HOUR CONTAINING PRELIMINARY DATA FROM ALBUQUERQUE
      AND OTHER STATIONS.  A FINAL VERSION WITH ADDITIONAL DATA IS 
      ISSUED ABOUT 10 MINUTES AFTER THE HOUR.
 
NMZ501-503-504-510>518-201500-
NORTHWEST PLATEAU/NORTHCENTRAL MOUNTAINS
  
CITY           SKY/WX    TMP DP  RH WIND       PRES   REMARKS
FARMINGTON     FAIR      63  34  33 E7        30.01S                  
LOS ALAMOS       N/A     64  32  29 CALM      30.16R                  
SANTA FE       FAIR      66  31  27 E3        30.10R                  
TAOS           FAIR      60  36  40 S5        30.15S                  
ANGEL FIRE       N/A     59  38  44 CALM      30.21R                  

$$
NMZ402-403-502-505>509-201500-
WESTCENTRAL MOUNTAINS/SOUTHWEST MOUNTAINS
  
CITY           SKY/WX    TMP DP  RH WIND       PRES   REMARKS
GALLUP         FAIR      64  24  21 S15       30.15S                  
GRANTS         FAIR      64  29  26 CALM      30.17S                  
SILVER CITY    FAIR      73  19  13 NW9       30.12R                  

$$
NMZ407-409-411-412-201500-
SOUTHERN DESERTS
  
CITY           SKY/WX    TMP DP  RH WIND       PRES   REMARKS
DEMING         FAIR      68  25  19 SW8       30.05R                  
LAS CRUCES     FAIR      72  25  17 W12       30.03R                  
HOLLOMAN AFB   FAIR      74  29  19 SE6       30.01R                  
ALAMOGORDO     FAIR      73  34  23 S5        30.00S                  
T OR C         FAIR      79  19  10 NW14      30.02R                  

$$
NMZ519>523-201500-
CENTRAL VALLEYS/CENTRAL HIGHLANDS
  
CITY           SKY/WX    TMP DP  RH WIND       PRES   REMARKS
ALBUQUERQUE    FAIR      72  29  20 S8        30.06R                  
DOUBLE EAGLE   SUNNY     70  30  23 CALM      30.09R                  
MORIARTY ARPT  FAIR      68  33  27 NE3       30.11R                  
CLINES CORNERS FAIR      65  31  28 NW12      30.15R                  
BELEN          FAIR      74  25  15 CALM      30.06R                  
SOCORRO        FAIR      74  26  17 SE3       30.04S                  

$$
NMZ524>526-539-540-201500-
SOUTHCENTRAL MOUNTAINS
  
CITY           SKY/WX    TMP DP  RH WIND       PRES   REMARKS
RUIDOSO        FAIR      72  25  17 W8        30.18R                  

$$
NMZ527>531-201500-
NORTHEAST HIGHLANDS/NORTHEAST PLAINS
  
CITY           SKY/WX    TMP DP  RH WIND       PRES   REMARKS
LAS VEGAS      FAIR      69  35  28 SW5       30.10R                  
RATON          FAIR      61  41  47 E7        30.02S                  
CLAYTON          N/A     75  45  34 W12       29.91R                  

$$
NMZ532>537-201500-
EASTCENTRAL PLAINS
  
CITY           SKY/WX    TMP DP  RH WIND       PRES   REMARKS
SANTA ROSA     FAIR      73  37  26 SW6       29.96S                  
TUCUMCARI      FAIR      76  39  26 W14       29.87S                  
CANNON AFB     FAIR      75  45  33 W8        29.93R                  
CLOVIS AIRPORT FAIR      75  50  41 W10       29.92R                  

$$
NMZ028-029-538-201500-
SOUTHEAST PLAINS
  
CITY           SKY/WX    TMP DP  RH WIND       PRES   REMARKS
ROSWELL        FAIR      76  33  21 SE5       29.90R                  
ARTESIA        FAIR      81  32  17 NW5       29.92R                  
CARLSBAD       FAIR      79  31  17 NE6       29.88R                  
HOBBS          SUNNY     82  25  12 SW8G14    29.91R                  


$$